,,PA_Meas_PMT16A,,PR_Meas_QMR101_102,,RH_Meas_QMH101,,SR_Meas_QMS101,,TA_Meas_QMH101,,GenWind,,GenWind,
time,status,PA,status,PR,status,RH,status,SR,status,TA,status,DirAvg,status,SpdAvg,
2014-12-07, 00:00:04,VALID,919.102,VALID,0,VALID,96.5658,VALID,0,VALID,20.6194,VALID,340,VALID,0,
2014-12-07, 00:01:04,VALID,919.092,VALID,0,VALID,96.4591,VALID,0,VALID,20.639,VALID,340,VALID,0,
2014-12-07, 00:02:04,VALID,919.116,VALID,0,VALID,96.3676,VALID,0,VALID,20.6194,VALID,340,VALID,0,
2014-12-07, 00:03:04,VALID,919.079,VALID,0,VALID,96.2151,VALID,0,VALID,20.6194,VALID,340,VALID,0,
2014-12-07, 00:04:04,VALID,919.047,VALID,0,VALID,96.116,VALID,0,VALID,20.639,VALID,340,VALID,0,
2014-12-07, 00:05:04,VALID,919.037,VALID,0,VALID,95.9483,VALID,0,VALID,20.5999,VALID,340,VALID,0,
2014-12-07, 00:06:04,VALID,919.026,VALID,0,VALID,95.8797,VALID,0,VALID,20.5594,VALID,340,VALID,0,
2014-12-07, 00:07:04,VALID,919.017,VALID,0,VALID,95.834,VALID,0,VALID,20.5804,VALID,340,VALID,0,
2014-12-07, 00:08:04,VALID,919.041,VALID,0,VALID,95.8035,VALID,0,VALID,20.5609,VALID,340,VALID,0,
2014-12-07, 00:09:04,VALID,919.066,VALID,0,VALID,95.7958,VALID,0,VALID,20.5609,VALID,340,VALID,0,
2014-12-07, 00:10:04,VALID,919.093,VALID,0,VALID,95.773,VALID,0,VALID,20.5804,VALID,340,VALID,0,
2014-12-07, 00:11:04,VALID,919.061,VALID,0,VALID,95.7501,VALID,0,VALID,20.6194,VALID,340,VALID,0,
2014-12-07, 00:12:04,VALID,919.069,VALID,0,VALID,95.7349,VALID,0,VALID,20.5984,VALID,340,VALID,0,
2014-12-07, 00:13:04,VALID,919.045,VALID,0,VALID,95.7272,VALID,0,VALID,20.5999,VALID,340,VALID,0,
2014-12-07, 00:14:04,VALID,919.059,VALID,0,VALID,95.7501,VALID,0,VALID,20.5804,VALID,340,VALID,0,
2014-12-07, 00:15:04,VALID,919.074,VALID,0,VALID,95.834,VALID,0,VALID,20.5999,VALID,340,VALID,0,
2014-12-07, 00:16:04,VALID,919.071,VALID,0,VALID,95.8416,VALID,0,VALID,20.5999,VALID,340,VALID,0,
2014-12-07, 00:17:04,VALID,919.056,VALID,0,VALID,95.8263,VALID,0,VALID,20.6194,VALID,340,VALID,0,
2014-12-07, 00:18:04,VALID,919.106,VALID,0,VALID,95.7882,VALID,0,VALID,20.6179,VALID,340,VALID,0,
2014-12-07, 00:19:04,VALID,919.073,VALID,0,VALID,95.6739,VALID,0,VALID,20.6585,VALID,340,VALID,0,
2014-12-07, 00:20:04,VALID,919.089,VALID,0,VALID,95.5138,VALID,0,VALID,20.678,VALID,340,VALID,0,
2014-12-07, 00:21:04,VALID,919.087,VALID,0,VALID,95.3308,VALID,0,VALID,20.6764,VALID,340,VALID,0,
2014-12-07, 00:22:04,VALID,919.095,VALID,0,VALID,95.1631,VALID,0,VALID,20.717,VALID,340,VALID,0,
2014-12-07, 00:23:04,VALID,919.104,VALID,0,VALID,95.003,VALID,0,VALID,20.7365,VALID,340,VALID,0,
2014-12-07, 00:24:04,VALID,919.1,VALID,0,VALID,94.8277,VALID,0,VALID,20.756,VALID,340,VALID,0,
2014-12-07, 00:25:04,VALID,919.104,VALID,0,VALID,94.4541,VALID,0,VALID,20.7365,VALID,340,VALID,0,
2014-12-07, 00:26:04,VALID,919.096,VALID,0,VALID,94.2483,VALID,0,VALID,20.7365,VALID,340,VALID,0,
2014-12-07, 00:27:04,VALID,919.081,VALID,0,VALID,94.0882,VALID,0,VALID,20.7154,VALID,340,VALID,0,
2014-12-07, 00:28:04,VALID,919.088,VALID,0,VALID,93.9434,VALID,0,VALID,20.717,VALID,340,VALID,0,
2014-12-07, 00:29:04,VALID,919.086,VALID,0,VALID,93.707,VALID,0,VALID,20.6975,VALID,340,VALID,0,
2014-12-07, 00:30:04,VALID,919.076,VALID,0,VALID,93.4859,VALID,0,VALID,20.6975,VALID,340,VALID,0,
2014-12-07, 00:31:04,VALID,919.073,VALID,0,VALID,93.4326,VALID,0,VALID,20.717,VALID,340,VALID,0,
2014-12-07, 00:32:04,VALID,919.076,VALID,0,VALID,93.3945,VALID,0,VALID,20.7365,VALID,340,VALID,0,
2014-12-07, 00:33:04,VALID,919.06,VALID,0,VALID,93.4783,VALID,0,VALID,20.7365,VALID,340,VALID,0,
2014-12-07, 00:34:04,VALID,919.076,VALID,0,VALID,93.4859,VALID,0,VALID,20.7365,VALID,340,VALID,0,
2014-12-07, 00:35:05,VALID,919.097,VALID,0,VALID,93.5164,VALID,0,VALID,20.7365,VALID,340,VALID,0,
2014-12-07, 00:36:05,VALID,919.098,VALID,0,VALID,93.4326,VALID,0,VALID,20.756,VALID,340,VALID,0,
2014-12-07, 00:37:05,VALID,919.086,VALID,0,VALID,93.303,VALID,0,VALID,20.717,VALID,340,VALID,0,
2014-12-07, 00:38:05,VALID,919.035,VALID,0,VALID,93.2268,VALID,0,VALID,20.6975,VALID,340,VALID,0,
2014-12-07, 00:39:05,VALID,919.033,VALID,0,VALID,93.5927,VALID,0,VALID,20.639,VALID,340,VALID,0,
2014-12-07, 00:40:05,VALID,919.038,VALID,0,VALID,94.1416,VALID,0,VALID,20.5609,VALID,340,VALID,0,
2014-12-07, 00:41:05,VALID,919.028,VALID,0,VALID,94.7057,VALID,0,VALID,20.5024,VALID,340,VALID,0,
2014-12-07, 00:42:05,VALID,919,VALID,0,VALID,94.9801,VALID,0,VALID,20.4423,VALID,340,VALID,0,
2014-12-07, 00:43:05,VALID,918.996,VALID,0,VALID,95.2088,VALID,0,VALID,20.4033,VALID,340,VALID,0,
2014-12-07, 00:44:05,VALID,918.976,VALID,0,VALID,95.4071,VALID,0,VALID,20.4049,VALID,340,VALID,0,
2014-12-07, 00:45:05,VALID,918.98,VALID,0,VALID,95.59,VALID,0,VALID,20.3659,VALID,340,VALID,0,
2014-12-07, 00:46:05,VALID,918.983,VALID,0,VALID,95.7349,VALID,0,VALID,20.3269,VALID,340,VALID,0,
2014-12-07, 00:47:05,VALID,918.972,VALID,0,VALID,95.9102,VALID,0,VALID,20.3074,VALID,340,VALID,0,
2014-12-07, 00:48:05,VALID,918.927,VALID,0,VALID,96.0398,VALID,0,VALID,20.2879,VALID,340,VALID,0,
2014-12-07, 00:49:05,VALID,918.94,VALID,0,VALID,96.1618,VALID,0,VALID,20.2879,VALID,340,VALID,0,
2014-12-07, 00:50:05,VALID,918.886,VALID,0,VALID,96.2914,VALID,0,VALID,20.2684,VALID,340,VALID,0,
2014-12-07, 00:51:05,VALID,918.836,VALID,0,VALID,96.3752,VALID,0,VALID,20.2684,VALID,340,VALID,0,
2014-12-07, 00:52:05,VALID,918.822,VALID,0,VALID,96.4362,VALID,0,VALID,20.2684,VALID,340,VALID,0,
2014-12-07, 00:53:05,VALID,918.853,VALID,0,VALID,96.5048,VALID,0,VALID,20.3089,VALID,340,VALID,0,
2014-12-07, 00:54:05,VALID,918.831,VALID,0,VALID,96.5353,VALID,0,VALID,20.3074,VALID,340,VALID,0,
2014-12-07, 00:55:05,VALID,918.814,VALID,0,VALID,96.5353,VALID,0,VALID,20.2863,VALID,340,VALID,0,
2014-12-07, 00:56:05,VALID,918.798,VALID,0,VALID,96.4972,VALID,0.107441,VALID,20.2684,VALID,340,VALID,0,
2014-12-07, 00:57:05,VALID,918.75,VALID,0,VALID,96.4133,VALID,0,VALID,20.2293,VALID,340,VALID,0,
2014-12-07, 00:58:05,VALID,918.733,VALID,0,VALID,96.3905,VALID,0,VALID,20.2098,VALID,340,VALID,0,
2014-12-07, 00:59:05,VALID,918.706,VALID,0,VALID,96.3905,VALID,0,VALID,20.1693,VALID,340,VALID,0,
2014-12-07, 01:00:05,VALID,918.719,VALID,0,VALID,96.3981,VALID,0,VALID,20.1903,VALID,340,VALID,0,
2014-12-07, 01:01:05,VALID,918.695,VALID,0,VALID,96.4133,VALID,0,VALID,20.1903,VALID,340,VALID,0,
2014-12-07, 01:02:05,VALID,918.685,VALID,0,VALID,96.3905,VALID,0,VALID,20.2098,VALID,340,VALID,0,
2014-12-07, 01:03:05,VALID,918.671,VALID,0,VALID,96.3524,VALID,0,VALID,20.1903,VALID,340,VALID,0,
2014-12-07, 01:04:05,VALID,918.678,VALID,0,VALID,96.3676,VALID,0.107441,VALID,20.1708,VALID,340,VALID,0,
2014-12-07, 01:05:05,VALID,918.657,VALID,0,VALID,96.3676,VALID,0,VALID,20.1708,VALID,340,VALID,0,
2014-12-07, 01:06:05,VALID,918.651,VALID,0,VALID,96.3752,VALID,0,VALID,20.1708,VALID,340,VALID,0,
2014-12-07, 01:07:05,VALID,918.649,VALID,0,VALID,96.3524,VALID,0,VALID,20.1318,VALID,340,VALID,0,
2014-12-07, 01:08:05,VALID,918.638,VALID,0,VALID,96.3676,VALID,0,VALID,20.1513,VALID,340,VALID,0,
2014-12-07, 01:09:05,VALID,918.66,VALID,0,VALID,96.3905,VALID,0,VALID,20.1708,VALID,340,VALID,0,
2014-12-07, 01:10:05,VALID,918.626,VALID,0,VALID,96.3066,VALID,0,VALID,20.1318,VALID,340,VALID,0,
2014-12-07, 01:11:05,VALID,918.601,VALID,0,VALID,96.0932,VALID,0,VALID,20.0343,VALID,340,VALID,0,
2014-12-07, 01:12:05,VALID,918.635,VALID,0,VALID,95.9559,VALID,0,VALID,19.9758,VALID,340,VALID,0,
2014-12-07, 01:13:05,VALID,918.598,VALID,0,VALID,95.8263,VALID,0,VALID,19.8978,VALID,340,VALID,0,
2014-12-07, 01:14:05,VALID,918.589,VALID,0,VALID,95.9483,VALID,0,VALID,19.8588,VALID,340,VALID,0,
2014-12-07, 01:15:05,VALID,918.554,VALID,0,VALID,96.1694,VALID,0,VALID,19.8783,VALID,340,VALID,0,
2014-12-07, 01:16:05,VALID,918.556,VALID,0,VALID,96.3066,VALID,0,VALID,19.8198,VALID,340,VALID,0,
2014-12-07, 01:17:05,VALID,918.537,VALID,0,VALID,96.36,VALID,0.107441,VALID,19.7808,VALID,340,VALID,0,
2014-12-07, 01:18:05,VALID,918.531,VALID,0,VALID,96.4286,VALID,0,VALID,19.7418,VALID,340,VALID,0,
2014-12-07, 01:19:05,VALID,918.533,VALID,0,VALID,96.5506,VALID,0,VALID,19.7223,VALID,340,VALID,0,
2014-12-07, 01:20:05,VALID,918.518,VALID,0,VALID,96.6878,VALID,0,VALID,19.7223,VALID,340,VALID,0,
2014-12-07, 01:21:05,VALID,918.507,VALID,0,VALID,96.7945,VALID,0,VALID,19.7418,VALID,340,VALID,0,
2014-12-07, 01:22:05,VALID,918.496,VALID,0,VALID,96.9165,VALID,0,VALID,19.7613,VALID,340,VALID,0,
2014-12-07, 01:23:05,VALID,918.491,VALID,0,VALID,96.9775,VALID,0,VALID,19.7418,VALID,340,VALID,0,
2014-12-07, 01:24:05,VALID,918.475,VALID,0,VALID,97.0613,VALID,0,VALID,19.7613,VALID,340,VALID,0,
2014-12-07, 01:25:05,VALID,918.445,VALID,0,VALID,97.1223,VALID,0,VALID,19.7823,VALID,340,VALID,0,
2014-12-07, 01:26:05,VALID,918.449,VALID,0,VALID,97.1757,VALID,0,VALID,19.8003,VALID,340,VALID,0,
2014-12-07, 01:27:05,VALID,918.502,VALID,0,VALID,97.2062,VALID,0,VALID,19.8393,VALID,340,VALID,0,
2014-12-07, 01:28:05,VALID,918.499,VALID,0,VALID,97.2519,VALID,0,VALID,19.8393,VALID,340,VALID,0,
2014-12-07, 01:29:05,VALID,918.498,VALID,0,VALID,97.2748,VALID,0.107441,VALID,19.8588,VALID,340,VALID,0,
2014-12-07, 01:30:05,VALID,918.507,VALID,0,VALID,97.2824,VALID,0,VALID,19.8393,VALID,340,VALID,0,
2014-12-07, 01:31:05,VALID,918.515,VALID,0,VALID,97.3053,VALID,0,VALID,19.8003,VALID,340,VALID,0,
2014-12-07, 01:32:05,VALID,918.513,VALID,0,VALID,97.2977,VALID,0,VALID,19.7613,VALID,340,VALID,0,
2014-12-07, 01:33:05,VALID,918.496,VALID,0,VALID,97.3205,VALID,0,VALID,19.7613,VALID,340,VALID,0,
2014-12-07, 01:34:05,VALID,918.547,VALID,0,VALID,97.3205,VALID,0.107441,VALID,19.7418,VALID,340,VALID,0,
2014-12-07, 01:35:05,VALID,918.5,VALID,0,VALID,97.3434,VALID,0,VALID,19.7028,VALID,340,VALID,0,
2014-12-07, 01:36:05,VALID,918.479,VALID,0,VALID,97.3968,VALID,0,VALID,19.6833,VALID,340,VALID,0,
2014-12-07, 01:37:05,VALID,918.503,VALID,0,VALID,97.3891,VALID,0,VALID,19.6833,VALID,340,VALID,0,
2014-12-07, 01:38:05,VALID,918.488,VALID,0,VALID,97.4425,VALID,0,VALID,19.6833,VALID,340,VALID,0,
2014-12-07, 01:39:05,VALID,918.471,VALID,0,VALID,97.4882,VALID,0.107441,VALID,19.6833,VALID,340,VALID,0,
2014-12-07, 01:40:05,VALID,918.466,VALID,0,VALID,97.5035,VALID,0,VALID,19.6833,VALID,340,VALID,0,
2014-12-07, 01:41:05,VALID,918.492,VALID,0,VALID,97.5492,VALID,0,VALID,19.6833,VALID,340,VALID,0,
2014-12-07, 01:42:05,VALID,918.466,VALID,0,VALID,97.5492,VALID,0,VALID,19.7028,VALID,340,VALID,0,
2014-12-07, 01:43:05,VALID,918.487,VALID,0,VALID,97.5721,VALID,0,VALID,19.7223,VALID,340,VALID,0,
2014-12-07, 01:44:05,VALID,918.458,VALID,0,VALID,97.595,VALID,0,VALID,19.7613,VALID,340,VALID,0,
2014-12-07, 01:45:05,VALID,918.48,VALID,0,VALID,97.6102,VALID,0,VALID,19.7613,VALID,340,VALID,0,
2014-12-07, 01:46:05,VALID,918.417,VALID,0,VALID,97.595,VALID,0,VALID,19.7418,VALID,340,VALID,0,
2014-12-07, 01:47:05,VALID,918.452,VALID,0,VALID,97.6331,VALID,0,VALID,19.7223,VALID,340,VALID,0,
2014-12-07, 01:48:05,VALID,918.432,VALID,0,VALID,97.6407,VALID,0,VALID,19.7028,VALID,340,VALID,0,
2014-12-07, 01:49:05,VALID,918.438,VALID,0,VALID,97.6331,VALID,0,VALID,19.6638,VALID,340,VALID,0,
2014-12-07, 01:50:05,VALID,918.399,VALID,0,VALID,97.6331,VALID,0,VALID,19.6638,VALID,340,VALID,0,
2014-12-07, 01:51:05,VALID,918.42,VALID,0,VALID,97.6483,VALID,0,VALID,19.6638,VALID,340,VALID,0,
2014-12-07, 01:52:05,VALID,918.425,VALID,0,VALID,97.6483,VALID,0.107441,VALID,19.6833,VALID,340,VALID,0,
2014-12-07, 01:53:05,VALID,918.412,VALID,0,VALID,97.6712,VALID,0,VALID,19.7028,VALID,340,VALID,0,
2014-12-07, 01:54:05,VALID,918.404,VALID,0,VALID,97.6483,VALID,0,VALID,19.7223,VALID,340,VALID,0,
2014-12-07, 01:55:05,VALID,918.406,VALID,0,VALID,97.6788,VALID,0,VALID,19.7223,VALID,340,VALID,0,
2014-12-07, 01:56:05,VALID,918.359,VALID,0,VALID,97.6712,VALID,0,VALID,19.7223,VALID,340,VALID,0,
2014-12-07, 01:57:05,VALID,918.371,VALID,0,VALID,97.6865,VALID,0,VALID,19.7028,VALID,340,VALID,0,
2014-12-07, 01:58:05,VALID,918.362,VALID,0,VALID,97.7093,VALID,0,VALID,19.6833,VALID,340,VALID,0,
2014-12-07, 01:59:05,VALID,918.328,VALID,0,VALID,97.7017,VALID,0.107441,VALID,19.6443,VALID,340,VALID,0,
2014-12-07, 02:00:05,VALID,918.286,VALID,0,VALID,97.7322,VALID,0,VALID,19.6248,VALID,340,VALID,0,
2014-12-07, 02:01:05,VALID,918.271,VALID,0,VALID,97.7017,VALID,0,VALID,19.5858,VALID,340,VALID,0,
2014-12-07, 02:02:05,VALID,918.247,VALID,0,VALID,97.7093,VALID,0,VALID,19.5078,VALID,340,VALID,0,
2014-12-07, 02:03:05,VALID,918.233,VALID,0,VALID,97.6941,VALID,0,VALID,19.4703,VALID,340,VALID,0,
2014-12-07, 02:04:05,VALID,918.233,VALID,0,VALID,97.6865,VALID,0.107441,VALID,19.4118,VALID,340,VALID,0,
2014-12-07, 02:05:05,VALID,918.226,VALID,0,VALID,97.6255,VALID,0,VALID,19.4508,VALID,340,VALID,0,
2014-12-07, 02:06:05,VALID,918.23,VALID,0,VALID,97.656,VALID,0,VALID,19.5093,VALID,340,VALID,0,
2014-12-07, 02:07:05,VALID,918.246,VALID,0,VALID,97.6636,VALID,0,VALID,19.5483,VALID,340,VALID,0,
2014-12-07, 02:08:05,VALID,918.244,VALID,0,VALID,97.6941,VALID,0,VALID,19.5483,VALID,340,VALID,0,
2014-12-07, 02:09:05,VALID,918.233,VALID,0,VALID,97.7017,VALID,0,VALID,19.5678,VALID,340,VALID,0,
2014-12-07, 02:10:05,VALID,918.24,VALID,0,VALID,97.7017,VALID,0,VALID,19.5873,VALID,340,VALID,0,
2014-12-07, 02:11:05,VALID,918.213,VALID,0,VALID,97.7093,VALID,0,VALID,19.5858,VALID,340,VALID,0,
2014-12-07, 02:12:05,VALID,918.21,VALID,0,VALID,97.7169,VALID,0,VALID,19.6263,VALID,340,VALID,0,
2014-12-07, 02:13:05,VALID,918.168,VALID,0,VALID,97.7322,VALID,0,VALID,19.6458,VALID,340,VALID,0,
2014-12-07, 02:14:05,VALID,918.134,VALID,0,VALID,97.7551,VALID,0,VALID,19.6263,VALID,340,VALID,0,
2014-12-07, 02:15:05,VALID,918.133,VALID,0,VALID,97.7398,VALID,0,VALID,19.5858,VALID,340,VALID,0,
2014-12-07, 02:16:05,VALID,918.117,VALID,0,VALID,97.7627,VALID,0,VALID,19.5873,VALID,340,VALID,0,
2014-12-07, 02:17:05,VALID,918.11,VALID,0,VALID,97.7627,VALID,0,VALID,19.5468,VALID,340,VALID,0,
2014-12-07, 02:18:05,VALID,918.129,VALID,0,VALID,97.7474,VALID,0,VALID,19.5078,VALID,340,VALID,0,
2014-12-07, 02:19:05,VALID,918.098,VALID,0,VALID,97.7474,VALID,0,VALID,19.4688,VALID,340,VALID,0,
2014-12-07, 02:20:05,VALID,918.056,VALID,0,VALID,97.7474,VALID,0,VALID,19.4493,VALID,340,VALID,0,
2014-12-07, 02:21:05,VALID,918.046,VALID,0,VALID,97.7017,VALID,0,VALID,19.4898,VALID,340,VALID,0,
2014-12-07, 02:22:05,VALID,918.048,VALID,0,VALID,97.7093,VALID,0,VALID,19.4493,VALID,340,VALID,0,
2014-12-07, 02:23:05,VALID,918.037,VALID,0,VALID,97.7017,VALID,0,VALID,19.4898,VALID,340,VALID,0,
2014-12-07, 02:24:05,VALID,918.052,VALID,0,VALID,97.7017,VALID,0,VALID,19.5288,VALID,340,VALID,0,
2014-12-07, 02:25:05,VALID,918.046,VALID,0,VALID,97.7093,VALID,0,VALID,19.5873,VALID,340,VALID,0,
2014-12-07, 02:26:05,VALID,918.039,VALID,0,VALID,97.7169,VALID,0,VALID,19.5678,VALID,340,VALID,0,
2014-12-07, 02:27:05,VALID,918.015,VALID,0,VALID,97.7322,VALID,0,VALID,19.6068,VALID,340,VALID,0,
2014-12-07, 02:28:05,VALID,917.996,VALID,0,VALID,97.7169,VALID,0,VALID,19.5858,VALID,340,VALID,0,
2014-12-07, 02:29:05,VALID,917.994,VALID,0,VALID,97.7246,VALID,0,VALID,19.6263,VALID,340,VALID,0,
2014-12-07, 02:30:05,VALID,917.985,VALID,0,VALID,97.7322,VALID,0,VALID,19.6653,VALID,340,VALID,0,
2014-12-07, 02:31:05,VALID,917.97,VALID,0,VALID,97.7627,VALID,0,VALID,19.6248,VALID,340,VALID,0,
2014-12-07, 02:32:05,VALID,917.961,VALID,0,VALID,97.7322,VALID,0,VALID,19.6848,VALID,340,VALID,0,
2014-12-07, 02:33:05,VALID,917.941,VALID,0,VALID,97.7474,VALID,0,VALID,19.6848,VALID,340,VALID,0,
2014-12-07, 02:34:05,VALID,917.952,VALID,0,VALID,97.7398,VALID,0,VALID,19.7043,VALID,340,VALID,0,
2014-12-07, 02:35:05,VALID,917.941,VALID,0,VALID,97.7474,VALID,0,VALID,19.7043,VALID,340,VALID,0,
2014-12-07, 02:36:05,VALID,917.94,VALID,0,VALID,97.7703,VALID,0,VALID,19.4883,VALID,340,VALID,0,
2014-12-07, 02:37:05,VALID,917.957,VALID,0,VALID,97.7322,VALID,0,VALID,19.4703,VALID,340,VALID,0,
2014-12-07, 02:38:05,VALID,917.904,VALID,0,VALID,97.6865,VALID,0,VALID,19.4898,VALID,340,VALID,0,
2014-12-07, 02:39:05,VALID,917.917,VALID,0,VALID,97.6788,VALID,0,VALID,19.4298,VALID,340,VALID,0,
2014-12-07, 02:40:05,VALID,917.928,VALID,0,VALID,97.6712,VALID,0,VALID,19.4313,VALID,340,VALID,0,
2014-12-07, 02:41:05,VALID,917.924,VALID,0,VALID,97.6483,VALID,0,VALID,19.4688,VALID,340,VALID,0,
2014-12-07, 02:42:05,VALID,917.898,VALID,0,VALID,97.6712,VALID,0,VALID,19.5273,VALID,340,VALID,0,
2014-12-07, 02:43:05,VALID,917.88,VALID,0,VALID,97.6865,VALID,0,VALID,19.5678,VALID,340,VALID,0,
2014-12-07, 02:44:05,VALID,917.871,VALID,0,VALID,97.7093,VALID,0,VALID,19.6068,VALID,340,VALID,0,
2014-12-07, 02:45:05,VALID,917.865,VALID,0,VALID,97.7093,VALID,0,VALID,19.5678,VALID,340,VALID,0,
2014-12-07, 02:46:05,VALID,917.868,VALID,0,VALID,97.6941,VALID,0,VALID,19.5678,VALID,340,VALID,0,
2014-12-07, 02:47:05,VALID,917.836,VALID,0,VALID,97.7169,VALID,0,VALID,19.5873,VALID,340,VALID,0,
2014-12-07, 02:48:05,VALID,917.801,VALID,0,VALID,97.7246,VALID,0,VALID,19.5093,VALID,340,VALID,0,
2014-12-07, 02:49:05,VALID,917.811,VALID,0,VALID,97.6788,VALID,0,VALID,19.4688,VALID,340,VALID,0,
2014-12-07, 02:50:05,VALID,917.779,VALID,0,VALID,97.6865,VALID,0,VALID,19.5093,VALID,340,VALID,0,
2014-12-07, 02:51:05,VALID,917.784,VALID,0,VALID,97.6788,VALID,0,VALID,19.5873,VALID,340,VALID,0,
2014-12-07, 02:52:05,VALID,917.753,VALID,0,VALID,97.6788,VALID,0,VALID,19.5678,VALID,340,VALID,0,
2014-12-07, 02:53:05,VALID,917.757,VALID,0,VALID,97.6865,VALID,0,VALID,19.5873,VALID,340,VALID,0,
2014-12-07, 02:54:05,VALID,917.703,VALID,0,VALID,97.7169,VALID,0,VALID,19.6458,VALID,340,VALID,0,
2014-12-07, 02:55:05,VALID,917.707,VALID,0,VALID,97.6865,VALID,0,VALID,19.6443,VALID,340,VALID,0,
2014-12-07, 02:56:05,VALID,917.675,VALID,0,VALID,97.6941,VALID,0,VALID,19.6653,VALID,340,VALID,0,
2014-12-07, 02:57:05,VALID,917.673,VALID,0,VALID,97.7017,VALID,0,VALID,19.6653,VALID,340,VALID,0,
2014-12-07, 02:58:05,VALID,917.622,VALID,0,VALID,97.6865,VALID,0,VALID,19.6653,VALID,340,VALID,0,
2014-12-07, 02:59:05,VALID,917.614,VALID,0,VALID,97.6941,VALID,0,VALID,19.6458,VALID,340,VALID,0,
2014-12-07, 03:00:05,VALID,917.625,VALID,0,VALID,97.6712,VALID,0,VALID,19.5873,VALID,340,VALID,0,
2014-12-07, 03:01:05,VALID,917.612,VALID,0,VALID,97.6483,VALID,0,VALID,19.5678,VALID,340,VALID,0,
2014-12-07, 03:02:05,VALID,917.614,VALID,0,VALID,97.6026,VALID,0,VALID,19.5483,VALID,340,VALID,0,
2014-12-07, 03:03:05,VALID,917.609,VALID,0,VALID,97.5645,VALID,0,VALID,19.5678,VALID,340,VALID,0,
2014-12-07, 03:04:05,VALID,917.603,VALID,0,VALID,97.5264,VALID,0,VALID,19.5678,VALID,340,VALID,0,
2014-12-07, 03:05:05,VALID,917.6,VALID,0,VALID,97.5264,VALID,0,VALID,19.6068,VALID,340,VALID,0,
2014-12-07, 03:06:05,VALID,917.589,VALID,0,VALID,97.534,VALID,0,VALID,19.5873,VALID,340,VALID,0,
2014-12-07, 03:07:05,VALID,917.553,VALID,0,VALID,97.5111,VALID,0,VALID,19.5873,VALID,340,VALID,0,
2014-12-07, 03:08:05,VALID,917.551,VALID,0,VALID,97.5111,VALID,0,VALID,19.6263,VALID,340,VALID,0,
2014-12-07, 03:09:05,VALID,917.529,VALID,0,VALID,97.5035,VALID,0,VALID,19.6263,VALID,340,VALID,0,
2014-12-07, 03:10:05,VALID,917.532,VALID,0,VALID,97.4959,VALID,0,VALID,19.6248,VALID,340,VALID,0,
2014-12-07, 03:11:05,VALID,917.523,VALID,0,VALID,97.4959,VALID,0,VALID,19.6458,VALID,340,VALID,0,
2014-12-07, 03:12:05,VALID,917.518,VALID,0,VALID,97.4882,VALID,0,VALID,19.6458,VALID,340,VALID,0,
2014-12-07, 03:13:05,VALID,917.508,VALID,0,VALID,97.4654,VALID,0,VALID,19.6053,VALID,340,VALID,0,
2014-12-07, 03:14:05,VALID,917.477,VALID,0,VALID,97.4044,VALID,0,VALID,19.5873,VALID,340,VALID,0,
2014-12-07, 03:15:05,VALID,917.484,VALID,0,VALID,97.3586,VALID,0,VALID,19.5288,VALID,340,VALID,0,
2014-12-07, 03:16:05,VALID,917.473,VALID,0,VALID,97.3205,VALID,0,VALID,19.5693,VALID,340,VALID,0,
2014-12-07, 03:17:04,VALID,917.449,VALID,0,VALID,97.2748,VALID,0,VALID,19.5093,VALID,340,VALID,0,
2014-12-07, 03:18:04,VALID,917.447,VALID,0,VALID,97.1909,VALID,0,VALID,19.4118,VALID,340,VALID,0,
2014-12-07, 03:19:04,VALID,917.45,VALID,0,VALID,97.1147,VALID,0,VALID,19.3923,VALID,340,VALID,0,
2014-12-07, 03:20:04,VALID,917.428,VALID,0,VALID,97.1452,VALID,0,VALID,19.3728,VALID,340,VALID,0,
2014-12-07, 03:21:04,VALID,917.427,VALID,0,VALID,97.1909,VALID,0,VALID,19.3728,VALID,340,VALID,0,
2014-12-07, 03:22:04,VALID,917.407,VALID,0,VALID,97.1833,VALID,0,VALID,19.3533,VALID,340,VALID,0,
2014-12-07, 03:23:04,VALID,917.393,VALID,0,VALID,97.0918,VALID,0,VALID,19.2363,VALID,340,VALID,0,
2014-12-07, 03:24:04,VALID,917.408,VALID,0,VALID,96.9927,VALID,0,VALID,19.1178,VALID,340,VALID,0,
2014-12-07, 03:25:04,VALID,917.43,VALID,0,VALID,97.0003,VALID,0,VALID,19.1193,VALID,340,VALID,0,
2014-12-07, 03:26:04,VALID,917.445,VALID,0,VALID,97.0232,VALID,0,VALID,19.0803,VALID,340,VALID,0,
2014-12-07, 03:27:04,VALID,917.447,VALID,0,VALID,97.0918,VALID,0,VALID,19.0803,VALID,340,VALID,0,
2014-12-07, 03:28:04,VALID,917.43,VALID,0,VALID,97.1223,VALID,0,VALID,19.0998,VALID,340,VALID,0,
2014-12-07, 03:29:04,VALID,917.39,VALID,0,VALID,97.1757,VALID,0,VALID,19.0998,VALID,340,VALID,0,
2014-12-07, 03:30:04,VALID,917.427,VALID,0,VALID,97.2214,VALID,0,VALID,19.0788,VALID,340,VALID,0,
2014-12-07, 03:31:04,VALID,917.419,VALID,0,VALID,97.2595,VALID,0,VALID,19.1193,VALID,340,VALID,0,
2014-12-07, 03:32:04,VALID,917.407,VALID,0,VALID,97.29,VALID,0,VALID,19.0998,VALID,340,VALID,0,
2014-12-07, 03:33:04,VALID,917.365,VALID,0,VALID,97.3358,VALID,0,VALID,19.0998,VALID,340,VALID,0,
2014-12-07, 03:34:04,VALID,917.368,VALID,0,VALID,97.3968,VALID,0,VALID,19.1193,VALID,346,VALID,0,
2014-12-07, 03:35:04,VALID,917.368,VALID,0,VALID,97.4273,VALID,0,VALID,19.1193,VALID,349,VALID,0,
2014-12-07, 03:36:04,VALID,917.371,VALID,0,VALID,97.4882,VALID,0,VALID,19.1193,VALID,349,VALID,0,
2014-12-07, 03:37:04,VALID,917.36,VALID,0,VALID,97.5035,VALID,0,VALID,19.0998,VALID,345,VALID,0,
2014-12-07, 03:38:04,VALID,917.363,VALID,0,VALID,97.5264,VALID,0,VALID,19.1193,VALID,344,VALID,0,
2014-12-07, 03:39:04,VALID,917.319,VALID,0,VALID,97.5264,VALID,0,VALID,19.1193,VALID,343,VALID,0,
2014-12-07, 03:40:04,VALID,917.284,VALID,0,VALID,97.5645,VALID,0,VALID,19.1583,VALID,350,VALID,0,
2014-12-07, 03:41:04,VALID,917.253,VALID,0,VALID,97.5797,VALID,0,VALID,19.1973,VALID,337,VALID,0,
2014-12-07, 03:42:04,VALID,917.231,VALID,0,VALID,97.6026,VALID,0,VALID,19.1973,VALID,339,VALID,0,
2014-12-07, 03:43:04,VALID,917.219,VALID,0,VALID,97.6331,VALID,0,VALID,19.2168,VALID,360,VALID,0,
2014-12-07, 03:44:04,VALID,917.202,VALID,0,VALID,97.6407,VALID,0,VALID,19.1958,VALID,360,VALID,0,
2014-12-07, 03:45:04,VALID,917.202,VALID,0,VALID,97.6407,VALID,0,VALID,19.1778,VALID,360,VALID,0,
2014-12-07, 03:46:04,VALID,917.168,VALID,0,VALID,97.6255,VALID,0,VALID,19.1778,VALID,360,VALID,0,
2014-12-07, 03:47:04,VALID,917.148,VALID,0,VALID,97.6407,VALID,0,VALID,19.1583,VALID,360,VALID,0,
2014-12-07, 03:48:04,VALID,917.16,VALID,0,VALID,97.6483,VALID,0,VALID,19.1388,VALID,360,VALID,0,
2014-12-07, 03:49:04,VALID,917.131,VALID,0,VALID,97.6483,VALID,0,VALID,19.1583,VALID,360,VALID,0,
2014-12-07, 03:50:04,VALID,917.148,VALID,0,VALID,97.6407,VALID,0,VALID,19.1583,VALID,360,VALID,0,
2014-12-07, 03:51:04,VALID,917.164,VALID,0,VALID,97.6483,VALID,0,VALID,19.1973,VALID,360,VALID,0,
2014-12-07, 03:52:04,VALID,917.137,VALID,0,VALID,97.6788,VALID,0,VALID,19.1778,VALID,360,VALID,0,
2014-12-07, 03:53:04,VALID,917.177,VALID,0,VALID,97.6788,VALID,0,VALID,19.1373,VALID,360,VALID,0,
2014-12-07, 03:54:04,VALID,917.144,VALID,0,VALID,97.6865,VALID,0,VALID,19.1388,VALID,360,VALID,0,
2014-12-07, 03:55:04,VALID,917.126,VALID,0,VALID,97.6788,VALID,0,VALID,19.0998,VALID,360,VALID,0,
2014-12-07, 03:56:04,VALID,917.122,VALID,0,VALID,97.6712,VALID,0,VALID,19.0803,VALID,360,VALID,0,
2014-12-07, 03:57:04,VALID,917.121,VALID,0,VALID,97.656,VALID,0,VALID,19.0413,VALID,360,VALID,0,
2014-12-07, 03:58:04,VALID,917.117,VALID,0,VALID,97.6255,VALID,0,VALID,18.9828,VALID,360,VALID,0,
2014-12-07, 03:59:04,VALID,917.134,VALID,0,VALID,97.6255,VALID,0.107441,VALID,19.0008,VALID,360,VALID,0,